Time,TemperatureF,DewpointF,PressureIn,WindDirection,WindDirectionDegrees,WindSpeedMPH,WindSpeedGustMPH,Humidity,HourlyPrecipIn,Conditions,Clouds,dailyrainin,SoftwareType,DateUTC
2013-10-08 00:01:00,42.8,37.5,18.79,SSW,208,0.0,0.0,82,0.00,,OVC,0.00,VWS V13.01,2013-10-08 05:01:00,
2013-10-08 00:06:00,42.6,37.4,18.79,SSW,208,0.0,0.0,82,0.00,,OVC,0.00,VWS V13.01,2013-10-08 05:06:00,
2013-10-08 00:11:00,42.6,37.8,18.79,SSW,208,0.0,0.0,83,0.00,,OVC,0.00,VWS V13.01,2013-10-08 05:11:00,
2013-10-08 00:16:00,42.6,37.8,18.79,SSW,208,0.0,0.0,83,0.00,,OVC,0.00,VWS V13.01,2013-10-08 05:16:00,
2013-10-08 00:21:00,42.4,37.6,18.79,SSW,208,0.0,0.0,83,0.00,,OVC,0.00,VWS V13.01,2013-10-08 05:21:00,
2013-10-08 00:26:00,42.4,37.6,18.79,SSW,208,0.0,0.0,83,0.00,,OVC,0.00,VWS V13.01,2013-10-08 05:26:00,
2013-10-08 00:31:00,42.4,37.6,18.79,SSW,208,0.0,0.0,83,0.00,,OVC,0.00,VWS V13.01,2013-10-08 05:31:00,
2013-10-08 00:36:00,42.3,37.5,18.79,SSW,208,0.0,0.0,83,0.00,,OVC,0.00,VWS V13.01,2013-10-08 05:36:00,
2013-10-08 00:41:00,42.3,37.9,18.79,SSW,208,0.0,0.0,84,0.00,,OVC,0.00,VWS V13.01,2013-10-08 05:41:00,
2013-10-08 00:46:00,42.3,37.9,18.79,SSW,208,0.0,0.0,84,0.00,,OVC,0.00,VWS V13.01,2013-10-08 05:46:00,
2013-10-08 00:51:00,42.1,37.7,18.79,SSW,208,0.0,0.0,84,0.00,,OVC,0.00,VWS V13.01,2013-10-08 05:51:00,
2013-10-08 00:56:00,42.1,37.7,18.79,SSW,208,0.0,0.0,84,0.00,,OVC,0.00,VWS V13.01,2013-10-08 05:56:00,
2013-10-08 01:01:00,42.1,37.7,18.79,SSW,208,0.0,0.0,84,0.00,,OVC,0.00,VWS V13.01,2013-10-08 06:01:00,
2013-10-08 01:06:00,41.9,37.5,18.79,SSW,208,0.0,0.0,84,0.00,,OVC,0.00,VWS V13.01,2013-10-08 06:06:00,
2013-10-08 01:11:00,41.9,37.5,18.79,SSW,208,0.0,0.0,84,0.00,,OVC,0.00,VWS V13.01,2013-10-08 06:11:00,
2013-10-08 01:16:00,41.9,37.5,18.79,SSW,208,0.0,0.0,84,0.00,,OVC,0.00,VWS V13.01,2013-10-08 06:16:00,
2013-10-08 01:21:00,41.9,38.0,18.79,SSW,208,0.0,0.0,86,0.00,,OVC,0.00,VWS V13.01,2013-10-08 06:21:00,
2013-10-08 01:26:00,41.7,37.8,18.79,SSW,208,0.0,0.0,86,0.00,,OVC,0.00,VWS V13.01,2013-10-08 06:26:00,
2013-10-08 01:31:00,41.7,37.8,18.79,SSW,208,0.0,0.0,86,0.00,,OVC,0.00,VWS V13.01,2013-10-08 06:31:00,
2013-10-08 01:36:00,41.7,37.8,18.79,SSW,208,0.0,0.0,86,0.00,,OVC,0.00,VWS V13.01,2013-10-08 06:36:00,
2013-10-08 01:41:00,41.7,37.8,18.79,SSW,208,0.0,0.0,86,0.00,,OVC,0.00,VWS V13.01,2013-10-08 06:41:00,
2013-10-08 01:45:00,41.7,37.8,18.79,SSW,208,0.0,0.0,86,0.00,,OVC,0.00,VWS V13.01,2013-10-08 06:45:00,
2013-10-08 01:50:00,41.5,37.6,18.79,SSW,208,0.0,0.0,86,0.00,,OVC,0.00,VWS V13.01,2013-10-08 06:50:00,
2013-10-08 01:55:00,41.5,37.6,18.79,SSW,208,0.0,0.0,86,0.00,,OVC,0.00,VWS V13.01,2013-10-08 06:55:00,
2013-10-08 02:01:00,41.5,38.0,18.79,SSW,208,0.0,0.0,87,0.00,,OVC,0.00,VWS V13.01,2013-10-08 07:01:00,
2013-10-08 02:06:00,41.5,38.0,18.79,SSW,208,0.0,0.0,87,0.00,,OVC,0.00,VWS V13.01,2013-10-08 07:06:00,
2013-10-08 02:11:00,41.7,38.2,18.79,SSW,208,0.0,0.0,87,0.00,,OVC,0.00,VWS V13.01,2013-10-08 07:11:00,
2013-10-08 02:16:00,41.5,38.0,18.79,SSW,208,0.0,0.0,87,0.00,,OVC,0.00,VWS V13.01,2013-10-08 07:16:00,
2013-10-08 02:20:00,41.5,38.0,18.79,SSW,208,0.0,0.0,87,0.00,,OVC,0.00,VWS V13.01,2013-10-08 07:20:00,
2013-10-08 02:25:00,41.5,38.0,18.79,SSW,208,0.0,0.0,87,0.00,,OVC,0.00,VWS V13.01,2013-10-08 07:25:00,
2013-10-08 02:30:00,41.5,38.0,18.79,SSW,208,0.0,0.0,87,0.00,,OVC,0.00,VWS V13.01,2013-10-08 07:30:00,
2013-10-08 02:35:00,41.4,38.3,18.79,SSW,208,0.0,0.0,89,0.00,,OVC,0.00,VWS V13.01,2013-10-08 07:35:00,
2013-10-08 02:40:00,41.4,38.3,18.79,SSW,208,0.0,0.0,89,0.00,,OVC,0.00,VWS V13.01,2013-10-08 07:40:00,
2013-10-08 02:45:00,41.4,38.3,18.79,SSW,208,0.0,0.0,89,0.00,,OVC,0.00,VWS V13.01,2013-10-08 07:45:00,
2013-10-08 02:50:00,41.4,38.3,18.79,SSW,208,0.0,0.0,89,0.00,,OVC,0.00,VWS V13.01,2013-10-08 07:50:00,
2013-10-08 02:55:00,41.2,38.5,18.79,SSW,208,0.0,0.0,90,0.00,,OVC,0.00,VWS V13.01,2013-10-08 07:55:00,
2013-10-08 03:00:00,41.4,38.7,18.79,SSW,208,0.0,0.0,90,0.00,,OVC,0.00,VWS V13.01,2013-10-08 08:00:00,
2013-10-08 03:05:00,41.4,38.7,18.79,SSW,208,0.0,0.0,90,0.00,,OVC,0.00,VWS V13.01,2013-10-08 08:05:00,
2013-10-08 03:10:00,41.4,39.1,18.79,SSW,208,0.0,0.0,92,0.00,,OVC,0.00,VWS V13.01,2013-10-08 08:10:00,
2013-10-08 03:15:00,41.4,39.1,18.79,SSW,208,0.0,0.0,92,0.00,,OVC,0.00,VWS V13.01,2013-10-08 08:15:00,
2013-10-08 03:20:00,41.4,39.1,18.79,SSW,208,0.0,0.0,92,0.00,,OVC,0.00,VWS V13.01,2013-10-08 08:20:00,
2013-10-08 03:25:00,41.5,39.3,18.79,SSW,208,0.0,0.0,92,0.00,,OVC,0.00,VWS V13.01,2013-10-08 08:25:00,
2013-10-08 03:30:00,41.5,39.7,18.79,SSW,208,0.0,0.0,93,0.00,,OVC,0.00,VWS V13.01,2013-10-08 08:30:00,
2013-10-08 03:35:00,41.5,39.7,18.79,SSW,208,0.0,0.0,93,0.00,,OVC,0.00,VWS V13.01,2013-10-08 08:35:00,
2013-10-08 03:40:00,41.5,39.7,18.79,SSW,208,0.0,0.0,93,0.00,,OVC,0.00,VWS V13.01,2013-10-08 08:40:00,
2013-10-08 03:45:00,41.5,39.7,18.79,SSW,208,0.0,0.0,93,0.00,,OVC,0.00,VWS V13.01,2013-10-08 08:45:00,
2013-10-08 03:50:00,41.5,39.7,18.79,SSW,208,0.0,0.0,93,0.00,,OVC,0.00,VWS V13.01,2013-10-08 08:50:00,
2013-10-08 03:55:00,41.5,40.0,18.79,SSW,208,0.0,0.0,94,0.00,,OVC,0.00,VWS V13.01,2013-10-08 08:55:00,
2013-10-08 04:00:00,41.5,40.0,18.79,SSW,208,0.0,0.0,94,0.00,,OVC,0.00,VWS V13.01,2013-10-08 09:00:00,
2013-10-08 04:05:00,41.5,40.0,18.79,SSW,208,0.0,0.0,94,0.00,,OVC,0.00,VWS V13.01,2013-10-08 09:05:00,
2013-10-08 04:10:00,41.5,40.0,18.79,SSW,208,0.0,0.0,94,0.00,,OVC,0.00,VWS V13.01,2013-10-08 09:10:00,
2013-10-08 04:15:00,41.4,40.2,18.79,SSW,208,0.0,0.0,96,0.00,,OVC,0.00,VWS V13.01,2013-10-08 09:15:00,
2013-10-08 04:20:00,41.4,40.2,18.79,SSW,208,0.0,0.0,96,0.00,,OVC,0.00,VWS V13.01,2013-10-08 09:20:00,
2013-10-08 04:25:00,41.4,40.2,18.79,SSW,208,0.0,0.0,96,0.00,,OVC,0.00,VWS V13.01,2013-10-08 09:25:00,
2013-10-08 04:30:00,41.4,40.6,18.79,SSW,208,0.0,0.0,97,0.00,,OVC,0.00,VWS V13.01,2013-10-08 09:30:00,
2013-10-08 04:35:00,41.4,40.6,18.79,SSW,208,0.0,0.0,97,0.00,,OVC,0.00,VWS V13.01,2013-10-08 09:35:00,
2013-10-08 04:40:00,41.4,40.6,18.79,SSW,208,0.0,0.0,97,0.00,,OVC,0.00,VWS V13.01,2013-10-08 09:40:00,
2013-10-08 04:45:00,41.4,41.0,18.79,SSW,208,0.0,0.0,99,0.00,,OVC,0.00,VWS V13.01,2013-10-08 09:45:00,
2013-10-08 04:50:00,41.4,41.0,18.79,SSW,208,0.0,0.0,99,0.00,,OVC,0.00,VWS V13.01,2013-10-08 09:50:00,
2013-10-08 04:55:00,41.4,41.0,18.79,SSW,208,0.0,0.0,99,0.00,,OVC,0.00,VWS V13.01,2013-10-08 09:55:00,
2013-10-08 05:00:00,41.4,41.0,18.79,SSW,208,0.0,0.0,99,0.00,,OVC,0.00,VWS V13.01,2013-10-08 10:00:00,
2013-10-08 05:05:00,41.5,41.5,18.79,SSW,208,0.0,0.0,100,0.00,,OVC,0.00,VWS V13.01,2013-10-08 10:05:00,
2013-10-08 05:10:00,41.7,41.7,18.79,SSW,208,0.0,0.0,100,0.00,,OVC,0.00,VWS V13.01,2013-10-08 10:10:00,
2013-10-08 05:15:00,41.7,41.7,18.79,SSW,208,0.0,0.0,100,0.00,,OVC,0.00,VWS V13.01,2013-10-08 10:15:00,
2013-10-08 05:20:00,41.7,41.7,18.79,SSW,208,0.0,0.0,100,0.00,,OVC,0.00,VWS V13.01,2013-10-08 10:20:00,
2013-10-08 05:25:00,41.9,41.9,18.79,SSW,208,0.0,0.0,100,0.00,,OVC,0.00,VWS V13.01,2013-10-08 10:25:00,
2013-10-08 05:30:00,42.1,42.1,18.79,SSW,208,0.0,0.0,100,0.00,,OVC,0.00,VWS V13.01,2013-10-08 10:30:00,
2013-10-08 05:35:00,42.3,42.3,18.79,SSW,208,0.0,0.0,100,0.00,,OVC,0.00,VWS V13.01,2013-10-08 10:35:00,
2013-10-08 05:40:00,42.3,42.3,18.79,SSW,208,0.0,0.0,100,0.00,,OVC,0.00,VWS V13.01,2013-10-08 10:40:00,
2013-10-08 05:45:00,42.3,42.3,18.79,SSW,208,0.0,0.0,100,0.00,,OVC,0.00,VWS V13.01,2013-10-08 10:45:00,
2013-10-08 05:50:00,42.3,42.3,18.79,SSW,208,0.0,0.0,100,0.00,,OVC,0.00,VWS V13.01,2013-10-08 10:50:00,
2013-10-08 05:55:00,42.3,42.3,18.79,SSW,208,0.0,0.0,100,0.00,,OVC,0.00,VWS V13.01,2013-10-08 10:55:00,
2013-10-08 06:00:00,42.3,42.3,18.79,SSW,208,0.0,0.0,100,0.00,,OVC,0.00,VWS V13.01,2013-10-08 11:00:00,
2013-10-08 06:05:00,42.3,42.3,18.79,SSW,208,0.0,0.0,100,0.00,,OVC,0.00,VWS V13.01,2013-10-08 11:05:00,
2013-10-08 06:10:00,42.3,42.3,18.79,SSW,208,0.0,0.0,100,0.00,,OVC,0.00,VWS V13.01,2013-10-08 11:10:00,
2013-10-08 06:15:00,42.4,42.4,18.79,SSW,208,0.0,0.0,100,0.00,,OVC,0.00,VWS V13.01,2013-10-08 11:15:00,
2013-10-08 06:20:00,42.4,42.4,18.79,SSW,208,0.0,0.0,100,0.00,,OVC,0.00,VWS V13.01,2013-10-08 11:20:00,
2013-10-08 06:25:00,42.4,42.4,18.79,SSW,208,0.0,0.0,100,0.00,,OVC,0.00,VWS V13.01,2013-10-08 11:25:00,
2013-10-08 06:30:00,42.6,42.6,18.79,SSW,208,0.0,0.0,100,0.00,,OVC,0.00,VWS V13.01,2013-10-08 11:30:00,
2013-10-08 06:35:00,42.6,42.6,18.79,SSW,208,0.0,0.0,100,0.00,,OVC,0.00,VWS V13.01,2013-10-08 11:35:00,
2013-10-08 06:40:00,42.4,42.4,18.79,SSW,208,0.0,0.0,100,0.00,,OVC,0.00,VWS V13.01,2013-10-08 11:40:00,
2013-10-08 06:45:00,42.4,42.4,18.79,SSW,208,0.0,0.0,100,0.00,,OVC,0.00,VWS V13.01,2013-10-08 11:45:00,
2013-10-08 06:50:00,42.4,42.4,18.79,SSW,208,0.0,0.0,100,0.00,,OVC,0.00,VWS V13.01,2013-10-08 11:50:00,
2013-10-08 06:55:00,42.3,42.3,18.79,SSW,208,0.0,0.0,100,0.00,,OVC,0.00,VWS V13.01,2013-10-08 11:55:00,
2013-10-08 07:00:00,42.3,42.3,18.79,SSW,208,0.0,0.0,100,0.00,,OVC,0.00,VWS V13.01,2013-10-08 12:00:00,
2013-10-08 07:05:00,42.3,42.3,18.79,SSW,208,0.0,0.0,100,0.00,,OVC,0.00,VWS V13.01,2013-10-08 12:05:00,
2013-10-08 07:10:00,42.1,42.1,18.79,SSW,208,0.0,0.0,100,0.00,,OVC,0.00,VWS V13.01,2013-10-08 12:10:00,
2013-10-08 07:15:00,42.1,42.1,18.79,SSW,208,0.0,0.0,100,0.00,,OVC,0.00,VWS V13.01,2013-10-08 12:15:00,
2013-10-08 07:20:00,42.1,42.1,18.79,SSW,208,0.0,0.0,100,0.00,,OVC,0.00,VWS V13.01,2013-10-08 12:20:00,
2013-10-08 07:25:00,42.1,42.1,18.79,SSW,208,0.0,0.0,100,0.00,,OVC,0.00,VWS V13.01,2013-10-08 12:25:00,
2013-10-08 07:30:00,42.3,42.3,18.79,SSW,208,0.0,0.0,100,0.00,,OVC,0.00,VWS V13.01,2013-10-08 12:30:00,
2013-10-08 07:35:00,42.3,42.3,18.79,SSW,208,0.0,0.0,100,0.00,,OVC,0.00,VWS V13.01,2013-10-08 12:35:00,
2013-10-08 07:40:00,42.4,42.4,18.79,SSW,208,0.0,0.0,100,0.00,,OVC,0.00,VWS V13.01,2013-10-08 12:40:00,
2013-10-08 07:45:00,42.8,42.8,18.79,SSW,208,0.0,0.0,100,0.00,,OVC,0.00,VWS V13.01,2013-10-08 12:45:00,
2013-10-08 07:50:00,43.0,43.0,18.79,SSW,208,0.0,0.0,100,0.00,,OVC,0.00,VWS V13.01,2013-10-08 12:50:00,
2013-10-08 07:55:00,43.0,43.0,18.79,SSW,208,0.0,0.0,100,0.00,,OVC,0.00,VWS V13.01,2013-10-08 12:55:00,
2013-10-08 08:00:00,43.3,43.3,18.79,SSW,208,0.0,0.0,100,0.00,,OVC,0.00,VWS V13.01,2013-10-08 13:00:00,
2013-10-08 08:05:00,43.7,43.7,18.79,SSW,208,0.0,0.0,100,0.00,,OVC,0.00,VWS V13.01,2013-10-08 13:05:00,
2013-10-08 08:10:00,44.4,44.4,18.79,SSW,208,0.0,0.0,100,0.00,,OVC,0.00,VWS V13.01,2013-10-08 13:10:00,
2013-10-08 08:15:00,45.3,45.3,18.79,SSW,208,0.0,0.0,100,0.00,,OVC,0.00,VWS V13.01,2013-10-08 13:15:00,
2013-10-08 08:20:00,46.2,46.2,18.79,SSW,208,0.0,0.0,100,0.00,,OVC,0.00,VWS V13.01,2013-10-08 13:20:00,
2013-10-08 08:25:00,47.1,47.1,18.79,SW,223,0.0,0.0,100,0.00,,OVC,0.00,VWS V13.01,2013-10-08 13:25:00,
2013-10-08 08:30:00,48.4,48.4,18.79,SW,231,0.0,0.0,100,0.00,,OVC,0.00,VWS V13.01,2013-10-08 13:30:00,
2013-10-08 08:35:00,49.6,49.6,18.79,SW,220,0.0,0.0,100,0.00,,OVC,0.00,VWS V13.01,2013-10-08 13:35:00,
2013-10-08 08:40:00,51.4,51.4,18.79,SSW,210,0.0,0.0,100,0.00,,OVC,0.00,VWS V13.01,2013-10-08 13:40:00,
2013-10-08 08:45:00,52.9,52.9,18.79,South,179,2.7,4.0,100,0.00,,OVC,0.00,VWS V13.01,2013-10-08 13:45:00,
2013-10-08 08:50:00,54.3,54.3,18.79,South,180,2.2,2.7,100,0.00,,OVC,0.00,VWS V13.01,2013-10-08 13:50:00,
2013-10-08 08:55:00,55.8,55.8,18.79,South,190,0.0,2.7,100,0.00,,OVC,0.00,VWS V13.01,2013-10-08 13:55:00,
2013-10-08 09:00:00,56.7,51.5,18.79,South,190,0.0,0.0,83,0.00,,OVC,0.00,VWS V13.01,2013-10-08 14:00:00,
2013-10-08 09:05:00,57.4,46.6,18.79,SSW,206,0.0,3.6,67,0.00,,OVC,0.00,VWS V13.01,2013-10-08 14:05:00,
2013-10-08 09:10:00,58.6,47.2,18.79,South,170,0.0,0.0,66,0.00,,OVC,0.00,VWS V13.01,2013-10-08 14:10:00,
2013-10-08 09:15:00,60.1,47.4,18.79,SSW,200,0.0,0.0,63,0.00,,OVC,0.00,VWS V13.01,2013-10-08 14:15:00,
2013-10-08 09:20:00,60.8,47.5,18.79,SSW,199,0.0,0.0,61,0.00,,OVC,0.00,VWS V13.01,2013-10-08 14:20:00,
2013-10-08 09:25:00,61.7,47.7,18.79,SE,132,0.0,0.0,60,0.00,,OVC,0.00,VWS V13.01,2013-10-08 14:25:00,
2013-10-08 09:30:00,62.6,47.9,18.79,SSW,200,0.0,0.0,59,0.00,,OVC,0.00,VWS V13.01,2013-10-08 14:30:00,
2013-10-08 09:35:00,63.0,48.2,18.79,South,190,2.2,3.1,59,0.00,,OVC,0.00,VWS V13.01,2013-10-08 14:35:00,
2013-10-08 09:40:00,63.3,48.6,18.79,SSE,150,0.0,0.0,59,0.00,,OVC,0.00,VWS V13.01,2013-10-08 14:40:00,
2013-10-08 09:45:00,63.9,49.1,18.79,South,190,0.0,0.0,59,0.00,,OVC,0.00,VWS V13.01,2013-10-08 14:45:00,
2013-10-08 09:50:00,63.9,49.1,18.79,South,184,3.1,3.1,59,0.00,,OVC,0.00,VWS V13.01,2013-10-08 14:50:00,
2013-10-08 09:55:00,63.9,49.1,18.79,WSW,239,5.4,5.8,59,0.00,,OVC,0.00,VWS V13.01,2013-10-08 14:55:00,
2013-10-08 10:00:00,64.2,49.4,18.79,SSW,212,0.0,0.0,59,0.00,,OVC,0.00,VWS V13.01,2013-10-08 15:00:00,
2013-10-08 10:05:00,64.4,48.9,18.79,SSE,167,0.0,0.0,57,0.00,,OVC,0.00,VWS V13.01,2013-10-08 15:05:00,
2013-10-08 10:10:00,64.4,48.9,18.79,SW,226,0.0,0.0,57,0.00,,OVC,0.00,VWS V13.01,2013-10-08 15:10:00,
2013-10-08 10:15:00,64.9,49.5,18.79,SSW,207,0.0,3.6,57,0.00,,OVC,0.00,VWS V13.01,2013-10-08 15:15:00,
2013-10-08 10:20:00,65.7,50.1,18.79,SSE,157,0.0,2.2,57,0.00,,OVC,0.00,VWS V13.01,2013-10-08 15:20:00,
2013-10-08 10:25:00,66.0,50.5,18.79,SE,142,0.0,0.0,57,0.00,,OVC,0.00,VWS V13.01,2013-10-08 15:25:00,
2013-10-08 10:30:00,66.6,51.0,18.79,South,190,0.0,0.0,57,0.00,,OVC,0.00,VWS V13.01,2013-10-08 15:30:00,
2013-10-08 10:35:00,66.7,51.1,18.79,SSW,207,0.0,0.0,57,0.00,,OVC,0.00,VWS V13.01,2013-10-08 15:35:00,
2013-10-08 10:40:00,67.5,51.8,18.79,South,182,3.1,5.4,57,0.00,,OVC,0.00,VWS V13.01,2013-10-08 15:40:00,
2013-10-08 10:45:00,68.0,52.3,18.79,South,181,0.0,3.6,57,0.00,,OVC,0.00,VWS V13.01,2013-10-08 15:45:00,
2013-10-08 10:50:00,68.7,53.0,18.79,South,189,0.0,0.0,57,0.00,,OVC,0.00,VWS V13.01,2013-10-08 15:50:00,
2013-10-08 10:55:00,68.4,52.6,18.79,South,173,2.2,5.4,57,0.00,,OVC,0.00,VWS V13.01,2013-10-08 15:55:00,
2013-10-08 11:00:00,68.5,52.8,18.79,SSW,198,0.0,0.0,57,0.00,,OVC,0.00,VWS V13.01,2013-10-08 16:00:00,
2013-10-08 11:05:00,69.1,53.3,18.79,SSW,193,4.0,4.0,57,0.00,,OVC,0.00,VWS V13.01,2013-10-08 16:05:00,
2013-10-08 11:10:00,69.3,53.5,18.79,SSW,199,5.4,5.4,57,0.00,,OVC,0.00,VWS V13.01,2013-10-08 16:10:00,
2013-10-08 11:15:00,69.6,53.8,18.79,SE,137,0.0,0.0,57,0.00,,OVC,0.00,VWS V13.01,2013-10-08 16:15:00,
2013-10-08 11:19:00,70.2,53.6,18.79,SE,136,0.0,0.0,56,0.00,,OVC,0.00,VWS V13.01,2013-10-08 16:19:00,
2013-10-08 11:24:00,70.3,53.8,18.79,SE,136,0.0,0.0,56,0.00,,OVC,0.00,VWS V13.01,2013-10-08 16:24:00,
2013-10-08 11:29:00,70.3,53.8,18.79,South,176,0.0,0.0,56,0.00,,OVC,0.00,VWS V13.01,2013-10-08 16:29:00,
2013-10-08 11:34:00,70.9,54.3,18.79,South,183,3.1,3.6,56,0.00,,OVC,0.00,VWS V13.01,2013-10-08 16:34:00,
2013-10-08 11:39:00,70.9,54.3,18.79,SW,216,0.0,3.6,56,0.00,,OVC,0.00,VWS V13.01,2013-10-08 16:39:00,
2013-10-08 11:44:00,71.4,54.8,18.79,SE,131,0.0,3.1,56,0.00,,OVC,0.00,VWS V13.01,2013-10-08 16:44:00,
2013-10-08 11:49:00,71.4,54.8,18.79,SW,217,5.4,5.4,56,0.00,,OVC,0.00,VWS V13.01,2013-10-08 16:49:00,
2013-10-08 11:54:00,71.4,54.8,18.79,SE,141,0.0,0.0,56,0.00,,OVC,0.00,VWS V13.01,2013-10-08 16:54:00,
2013-10-08 11:59:00,72.1,55.5,18.79,SW,229,0.0,0.0,56,0.00,,OVC,0.00,VWS V13.01,2013-10-08 16:59:00,
2013-10-08 12:04:00,72.7,56.0,18.79,South,182,0.0,3.6,56,0.00,,OVC,0.00,VWS V13.01,2013-10-08 17:04:00,
2013-10-08 12:09:00,72.7,56.0,18.79,SSE,158,3.1,4.9,56,0.00,,OVC,0.00,VWS V13.01,2013-10-08 17:09:00,
2013-10-08 12:14:00,72.9,56.2,18.79,SSE,168,0.0,0.0,56,0.00,,OVC,0.00,VWS V13.01,2013-10-08 17:14:00,
2013-10-08 12:19:00,73.4,55.9,18.79,SE,138,2.7,2.7,54,0.00,,OVC,0.00,VWS V13.01,2013-10-08 17:19:00,
2013-10-08 12:24:00,73.6,56.1,18.79,South,180,0.0,0.0,54,0.00,,OVC,0.00,VWS V13.01,2013-10-08 17:24:00,
2013-10-08 12:29:00,73.8,56.3,18.79,ESE,121,0.0,0.0,54,0.00,,OVC,0.00,VWS V13.01,2013-10-08 17:29:00,
2013-10-08 12:34:00,73.9,56.4,18.79,SE,140,0.0,0.0,54,0.00,,OVC,0.00,VWS V13.01,2013-10-08 17:34:00,
2013-10-08 12:39:00,73.8,56.3,18.79,ESE,120,0.0,0.0,54,0.00,,OVC,0.00,VWS V13.01,2013-10-08 17:39:00,
2013-10-08 12:44:00,74.3,56.8,18.79,SW,217,0.0,0.0,54,0.00,,OVC,0.00,VWS V13.01,2013-10-08 17:44:00,
2013-10-08 12:49:00,74.1,56.6,18.79,SE,142,4.0,4.0,54,0.00,,OVC,0.00,VWS V13.01,2013-10-08 17:49:00,
2013-10-08 12:54:00,73.6,56.1,18.79,SE,142,0.0,5.4,54,0.00,,OVC,0.00,VWS V13.01,2013-10-08 17:54:00,
2013-10-08 12:59:00,72.9,56.2,18.79,South,169,0.0,0.0,56,0.00,,OVC,0.00,VWS V13.01,2013-10-08 17:59:00,
2013-10-08 13:04:00,72.5,55.8,18.79,SSE,152,3.1,5.8,56,0.00,,OVC,0.00,VWS V13.01,2013-10-08 18:04:00,
2013-10-08 13:09:00,72.5,55.8,18.79,SSE,168,0.0,7.2,56,0.00,,OVC,0.00,VWS V13.01,2013-10-08 18:09:00,
2013-10-08 13:14:00,72.5,55.8,18.79,SW,216,3.1,3.1,56,0.00,,OVC,0.00,VWS V13.01,2013-10-08 18:14:00,
2013-10-08 13:19:00,72.7,56.0,18.79,SSW,195,3.6,3.6,56,0.00,,OVC,0.00,VWS V13.01,2013-10-08 18:19:00,
2013-10-08 13:24:00,72.5,55.8,18.79,SSW,206,2.7,2.7,56,0.00,,OVC,0.00,VWS V13.01,2013-10-08 18:24:00,
2013-10-08 13:29:00,72.5,55.8,18.79,SSE,148,2.7,7.2,56,0.00,,OVC,0.00,VWS V13.01,2013-10-08 18:29:00,
2013-10-08 13:34:00,72.5,55.8,18.79,ESE,117,5.8,5.8,56,0.00,,OVC,0.00,VWS V13.01,2013-10-08 18:34:00,
2013-10-08 13:39:00,72.5,55.8,18.79,SE,135,4.0,5.8,56,0.00,,OVC,0.00,VWS V13.01,2013-10-08 18:39:00,
2013-10-08 13:44:00,72.3,55.6,18.79,SW,230,5.8,5.8,56,0.00,,OVC,0.00,VWS V13.01,2013-10-08 18:44:00,
2013-10-08 13:49:00,72.3,55.6,18.79,SE,136,7.6,7.6,56,0.00,,OVC,0.00,VWS V13.01,2013-10-08 18:49:00,
2013-10-08 13:54:00,72.3,55.6,18.79,South,180,3.1,4.9,56,0.00,,OVC,0.00,VWS V13.01,2013-10-08 18:54:00,
2013-10-08 13:59:00,72.5,55.8,18.79,SE,137,0.0,2.7,56,0.00,,OVC,0.00,VWS V13.01,2013-10-08 18:59:00,
2013-10-08 14:04:00,72.5,55.8,18.79,SSE,165,4.9,8.7,56,0.00,,OVC,0.00,VWS V13.01,2013-10-08 19:04:00,
2013-10-08 14:09:00,72.5,55.8,18.79,SSE,162,0.0,8.1,56,0.00,,OVC,0.00,VWS V13.01,2013-10-08 19:09:00,
2013-10-08 14:14:00,72.7,56.0,18.79,SSE,148,0.0,4.0,56,0.00,,OVC,0.00,VWS V13.01,2013-10-08 19:14:00,
2013-10-08 14:19:00,72.7,56.0,18.79,SSW,205,0.0,0.0,56,0.00,,OVC,0.00,VWS V13.01,2013-10-08 19:19:00,
2013-10-08 14:24:00,72.9,56.2,18.79,SSE,153,0.0,0.0,56,0.00,,OVC,0.00,VWS V13.01,2013-10-08 19:24:00,
2013-10-08 14:29:00,73.0,56.3,18.79,SSE,147,4.5,4.5,56,0.00,,OVC,0.00,VWS V13.01,2013-10-08 19:29:00,
2013-10-08 14:34:00,73.0,56.3,18.79,SE,130,2.7,3.6,56,0.00,,OVC,0.00,VWS V13.01,2013-10-08 19:34:00,
2013-10-08 14:39:00,73.2,56.5,18.79,South,169,0.0,0.0,56,0.00,,OVC,0.00,VWS V13.01,2013-10-08 19:39:00,
2013-10-08 14:44:00,73.2,56.5,18.79,SSE,157,0.0,0.0,56,0.00,,OVC,0.00,VWS V13.01,2013-10-08 19:44:00,
2013-10-08 14:49:00,73.4,55.9,18.79,SSE,168,4.0,8.3,54,0.00,,OVC,0.00,VWS V13.01,2013-10-08 19:49:00,
2013-10-08 14:54:00,73.6,56.1,18.79,SW,214,0.0,0.0,54,0.00,,OVC,0.00,VWS V13.01,2013-10-08 19:54:00,
2013-10-08 14:59:00,73.4,55.9,18.79,SSW,212,5.4,5.4,54,0.00,,OVC,0.00,VWS V13.01,2013-10-08 19:59:00,
2013-10-08 15:04:00,73.6,56.1,18.79,ESE,121,0.0,0.0,54,0.00,,OVC,0.00,VWS V13.01,2013-10-08 20:04:00,
2013-10-08 15:09:00,73.6,56.1,18.79,SE,142,0.0,3.1,54,0.00,,OVC,0.00,VWS V13.01,2013-10-08 20:09:00,
2013-10-08 15:14:00,73.6,56.1,18.79,SE,138,0.0,0.0,54,0.00,,OVC,0.00,VWS V13.01,2013-10-08 20:14:00,
2013-10-08 15:19:00,73.4,55.9,18.79,WSW,255,0.0,0.0,54,0.00,,OVC,0.00,VWS V13.01,2013-10-08 20:19:00,
2013-10-08 15:24:00,73.4,55.9,18.79,SSE,155,0.0,0.0,54,0.00,,OVC,0.00,VWS V13.01,2013-10-08 20:24:00,
2013-10-08 15:29:00,73.4,55.9,18.79,SSE,159,3.6,3.6,54,0.00,,OVC,0.00,VWS V13.01,2013-10-08 20:29:00,
2013-10-08 15:34:00,73.4,55.9,18.79,SSE,160,0.0,0.0,54,0.00,,OVC,0.00,VWS V13.01,2013-10-08 20:34:00,
2013-10-08 15:39:00,73.6,56.1,18.79,WSW,241,3.1,3.1,54,0.00,,OVC,0.00,VWS V13.01,2013-10-08 20:39:00,
2013-10-08 15:44:00,73.6,56.1,18.79,South,185,0.0,0.0,54,0.00,,OVC,0.00,VWS V13.01,2013-10-08 20:44:00,
2013-10-08 15:49:00,73.6,56.1,18.79,SSW,206,0.0,0.0,54,0.00,,OVC,0.00,VWS V13.01,2013-10-08 20:49:00,
2013-10-08 15:54:00,73.6,56.1,18.79,SSE,154,0.0,0.0,54,0.00,,OVC,0.00,VWS V13.01,2013-10-08 20:54:00,
2013-10-08 15:59:00,73.4,55.9,18.79,South,179,0.0,0.0,54,0.00,,OVC,0.00,VWS V13.01,2013-10-08 20:59:00,
2013-10-08 16:04:00,73.6,56.1,18.79,South,184,0.0,3.6,54,0.00,,OVC,0.00,VWS V13.01,2013-10-08 21:04:00,
2013-10-08 16:09:00,73.4,55.9,18.79,SSW,209,3.1,7.2,54,0.00,,OVC,0.00,VWS V13.01,2013-10-08 21:09:00,
2013-10-08 16:14:00,73.6,56.1,18.79,SE,144,0.0,3.1,54,0.00,,OVC,0.00,VWS V13.01,2013-10-08 21:14:00,
2013-10-08 16:19:00,73.4,55.9,18.79,SE,145,0.0,0.0,54,0.00,,OVC,0.00,VWS V13.01,2013-10-08 21:19:00,
2013-10-08 16:24:00,73.4,55.9,18.79,SE,125,4.5,5.4,54,0.00,,OVC,0.00,VWS V13.01,2013-10-08 21:24:00,
2013-10-08 16:29:00,73.2,56.5,18.79,SE,129,0.0,0.0,56,0.00,,OVC,0.00,VWS V13.01,2013-10-08 21:29:00,
2013-10-08 16:34:00,73.0,56.3,18.79,SSE,148,0.0,5.8,56,0.00,,OVC,0.00,VWS V13.01,2013-10-08 21:34:00,
2013-10-08 16:39:00,73.0,56.3,18.79,South,184,0.0,0.0,56,0.00,,OVC,0.00,VWS V13.01,2013-10-08 21:39:00,
2013-10-08 16:44:00,73.2,56.5,18.79,South,187,0.0,5.4,56,0.00,,OVC,0.00,VWS V13.01,2013-10-08 21:44:00,
2013-10-08 16:49:00,73.2,56.5,18.79,SW,230,0.0,0.0,56,0.00,,OVC,0.00,VWS V13.01,2013-10-08 21:49:00,
2013-10-08 16:54:00,73.0,56.3,18.79,South,178,0.0,0.0,56,0.00,,OVC,0.00,VWS V13.01,2013-10-08 21:54:00,
2013-10-08 16:59:00,72.9,56.2,18.79,SW,233,3.1,3.1,56,0.00,,OVC,0.00,VWS V13.01,2013-10-08 21:59:00,
2013-10-08 17:03:00,72.7,56.0,18.79,SSW,198,7.2,7.2,56,0.00,,OVC,0.00,VWS V13.01,2013-10-08 22:03:00,
2013-10-08 17:08:00,72.7,56.0,18.79,South,178,0.0,2.7,56,0.00,,OVC,0.00,VWS V13.01,2013-10-08 22:08:00,
2013-10-08 17:13:00,72.5,55.8,18.79,South,190,0.0,0.0,56,0.00,,OVC,0.00,VWS V13.01,2013-10-08 22:13:00,
2013-10-08 17:18:00,72.0,55.3,18.79,SSE,165,0.0,0.0,56,0.00,,OVC,0.00,VWS V13.01,2013-10-08 22:18:00,
2013-10-08 17:23:00,71.8,55.1,18.79,East,99,0.0,0.0,56,0.00,,OVC,0.00,VWS V13.01,2013-10-08 22:23:00,
2013-10-08 17:28:00,72.0,55.3,18.79,SSE,159,0.0,0.0,56,0.00,,OVC,0.00,VWS V13.01,2013-10-08 22:28:00,
2013-10-08 17:33:00,72.0,55.3,18.79,SSE,166,0.0,0.0,56,0.00,,OVC,0.00,VWS V13.01,2013-10-08 22:33:00,
2013-10-08 17:38:00,71.4,54.8,18.79,SW,216,0.0,0.0,56,0.00,,OVC,0.00,VWS V13.01,2013-10-08 22:38:00,
2013-10-08 17:43:00,70.9,54.3,18.79,SW,216,0.0,0.0,56,0.00,,OVC,0.00,VWS V13.01,2013-10-08 22:43:00,
2013-10-08 17:48:00,70.2,53.6,18.79,SW,216,0.0,0.0,56,0.00,,OVC,0.00,VWS V13.01,2013-10-08 22:48:00,
2013-10-08 17:53:00,69.3,53.5,18.79,SW,216,0.0,0.0,57,0.00,,OVC,0.00,VWS V13.01,2013-10-08 22:53:00,
2013-10-08 17:58:00,68.4,52.6,18.79,SW,216,0.0,0.0,57,0.00,,OVC,0.00,VWS V13.01,2013-10-08 22:58:00,
2013-10-08 18:03:00,67.5,51.8,18.79,SW,216,0.0,0.0,57,0.00,,OVC,0.00,VWS V13.01,2013-10-08 23:03:00,
2013-10-08 18:08:00,66.7,51.1,18.79,SW,216,0.0,0.0,57,0.00,,OVC,0.00,VWS V13.01,2013-10-08 23:08:00,
2013-10-08 18:13:00,65.8,50.3,18.79,SW,216,0.0,0.0,57,0.00,,OVC,0.00,VWS V13.01,2013-10-08 23:13:00,
2013-10-08 18:18:00,64.9,49.5,18.79,SW,216,0.0,0.0,57,0.00,,OVC,0.00,VWS V13.01,2013-10-08 23:18:00,
2013-10-08 18:23:00,64.2,49.4,18.79,SW,216,0.0,0.0,59,0.00,,OVC,0.00,VWS V13.01,2013-10-08 23:23:00,
2013-10-08 18:28:00,63.5,48.8,18.79,SW,216,0.0,0.0,59,0.00,,OVC,0.00,VWS V13.01,2013-10-08 23:28:00,
2013-10-08 18:33:00,62.8,48.1,18.79,SW,216,0.0,0.0,59,0.00,,OVC,0.00,VWS V13.01,2013-10-08 23:33:00,
2013-10-08 18:38:00,62.2,47.6,18.79,SW,216,0.0,0.0,59,0.00,,OVC,0.00,VWS V13.01,2013-10-08 23:38:00,
2013-10-08 18:43:00,62.1,47.4,18.79,SW,216,0.0,0.0,59,0.00,,OVC,0.00,VWS V13.01,2013-10-08 23:43:00,
2013-10-08 18:48:00,61.7,47.1,18.79,SW,216,0.0,0.0,59,0.00,,OVC,0.00,VWS V13.01,2013-10-08 23:48:00,
2013-10-08 18:53:00,61.5,46.9,18.79,SW,216,0.0,0.0,59,0.00,,OVC,0.00,VWS V13.01,2013-10-08 23:53:00,
2013-10-08 18:58:00,61.0,46.4,18.79,SW,216,0.0,0.0,59,0.00,,OVC,0.00,VWS V13.01,2013-10-08 23:58:00,
2013-10-08 19:03:00,60.4,46.5,18.79,SW,216,0.0,0.0,60,0.00,,OVC,0.00,VWS V13.01,2013-10-09 00:03:00,
2013-10-08 19:08:00,60.1,46.2,18.79,SW,216,0.0,0.0,60,0.00,,OVC,0.00,VWS V13.01,2013-10-09 00:08:00,
2013-10-08 19:13:00,59.9,46.0,18.79,SW,216,0.0,0.0,60,0.00,,OVC,0.00,VWS V13.01,2013-10-09 00:13:00,
2013-10-08 19:18:00,59.5,45.7,18.79,SW,216,0.0,0.0,60,0.00,,OVC,0.00,VWS V13.01,2013-10-09 00:18:00,
2013-10-08 19:23:00,59.2,45.3,18.79,SW,216,0.0,0.0,60,0.00,,OVC,0.00,VWS V13.01,2013-10-09 00:23:00,
2013-10-08 19:28:00,59.4,45.5,18.79,SW,216,0.0,0.0,60,0.00,,OVC,0.00,VWS V13.01,2013-10-09 00:28:00,
2013-10-08 19:33:00,59.5,45.7,18.79,SW,216,0.0,0.0,60,0.00,,OVC,0.00,VWS V13.01,2013-10-09 00:33:00,
2013-10-08 19:38:00,59.5,45.7,18.79,SW,216,0.0,0.0,60,0.00,,OVC,0.00,VWS V13.01,2013-10-09 00:38:00,
2013-10-08 19:43:00,59.4,45.5,18.79,SW,216,0.0,0.0,60,0.00,,OVC,0.00,VWS V13.01,2013-10-09 00:43:00,
2013-10-08 19:48:00,59.7,45.8,18.79,SW,216,0.0,0.0,60,0.00,,OVC,0.00,VWS V13.01,2013-10-09 00:48:00,
2013-10-08 19:53:00,60.1,46.2,18.79,SW,216,0.0,0.0,60,0.00,,OVC,0.00,VWS V13.01,2013-10-09 00:53:00,
2013-10-08 19:58:00,60.6,46.7,18.79,SW,216,0.0,0.0,60,0.00,,OVC,0.00,VWS V13.01,2013-10-09 00:58:00,
2013-10-08 20:03:00,61.3,46.7,18.79,SW,216,0.0,0.0,59,0.00,,OVC,0.00,VWS V13.01,2013-10-09 01:03:00,
2013-10-08 20:08:00,62.1,47.4,18.79,South,173,0.0,0.0,59,0.00,,OVC,0.00,VWS V13.01,2013-10-09 01:08:00,
2013-10-08 20:13:00,62.6,47.9,18.79,South,173,0.0,0.0,59,0.00,,OVC,0.00,VWS V13.01,2013-10-09 01:13:00,
2013-10-08 20:18:00,62.6,47.9,18.79,South,173,0.0,0.0,59,0.00,,OVC,0.00,VWS V13.01,2013-10-09 01:18:00,
2013-10-08 20:23:00,62.6,47.9,18.79,South,172,0.0,0.0,59,0.00,,OVC,0.00,VWS V13.01,2013-10-09 01:23:00,
2013-10-08 20:28:00,62.8,48.1,18.79,South,171,0.0,0.0,59,0.00,,OVC,0.00,VWS V13.01,2013-10-09 01:28:00,
2013-10-08 20:33:00,63.0,48.2,18.79,South,171,0.0,0.0,59,0.00,,OVC,0.00,VWS V13.01,2013-10-09 01:33:00,
2013-10-08 20:38:00,62.8,48.1,18.79,South,171,0.0,0.0,59,0.00,,OVC,0.00,VWS V13.01,2013-10-09 01:38:00,
2013-10-08 20:43:00,62.4,47.8,18.79,South,171,0.0,0.0,59,0.00,,OVC,0.00,VWS V13.01,2013-10-09 01:43:00,
2013-10-08 20:48:00,62.2,47.6,18.79,South,170,0.0,0.0,59,0.00,,OVC,0.00,VWS V13.01,2013-10-09 01:48:00,
2013-10-08 20:53:00,62.1,47.4,18.79,South,170,0.0,0.0,59,0.00,,OVC,0.00,VWS V13.01,2013-10-09 01:53:00,
2013-10-08 20:58:00,61.9,47.2,18.79,South,170,0.0,0.0,59,0.00,,OVC,0.00,VWS V13.01,2013-10-09 01:58:00,
2013-10-08 21:03:00,61.7,47.1,18.79,South,170,0.0,0.0,59,0.00,,OVC,0.00,VWS V13.01,2013-10-09 02:03:00,
2013-10-08 21:08:00,61.9,47.2,18.79,ESE,113,0.0,0.0,59,0.00,,OVC,0.00,VWS V13.01,2013-10-09 02:08:00,
2013-10-08 21:13:00,61.9,47.2,18.79,South,179,0.0,0.0,59,0.00,,OVC,0.00,VWS V13.01,2013-10-09 02:13:00,
2013-10-08 21:18:00,62.2,47.6,18.79,SE,140,0.0,0.0,59,0.00,,OVC,0.00,VWS V13.01,2013-10-09 02:18:00,
2013-10-08 21:23:00,62.6,47.9,18.79,SE,146,0.0,0.0,59,0.00,,OVC,0.00,VWS V13.01,2013-10-09 02:23:00,
2013-10-08 21:28:00,63.0,48.2,18.79,SSE,154,0.0,0.0,59,0.00,,OVC,0.00,VWS V13.01,2013-10-09 02:28:00,
2013-10-08 21:33:00,63.1,48.4,18.79,SSW,213,0.0,0.0,59,0.00,,OVC,0.00,VWS V13.01,2013-10-09 02:33:00,
2013-10-08 21:38:00,63.1,48.4,18.79,SE,143,0.0,0.0,59,0.00,,OVC,0.00,VWS V13.01,2013-10-09 02:38:00,
2013-10-08 21:43:00,63.1,48.4,18.79,SSE,157,0.0,0.0,59,0.00,,OVC,0.00,VWS V13.01,2013-10-09 02:43:00,
2013-10-08 21:48:00,63.1,48.4,18.79,East,90,0.0,0.0,59,0.00,,OVC,0.00,VWS V13.01,2013-10-09 02:48:00,
2013-10-08 21:53:00,63.1,48.4,18.79,SE,133,0.0,0.0,59,0.00,,OVC,0.00,VWS V13.01,2013-10-09 02:53:00,
2013-10-08 21:58:00,63.3,48.6,18.79,SSW,200,2.2,2.2,59,0.00,,OVC,0.00,VWS V13.01,2013-10-09 02:58:00,
2013-10-08 22:03:00,63.3,48.6,18.79,SW,232,0.0,0.0,59,0.00,,OVC,0.00,VWS V13.01,2013-10-09 03:03:00,
2013-10-08 22:08:00,63.3,48.6,18.79,SSE,147,0.0,0.0,59,0.00,,OVC,0.00,VWS V13.01,2013-10-09 03:08:00,
2013-10-08 22:13:00,63.1,48.4,18.79,SE,142,0.0,0.0,59,0.00,,OVC,0.00,VWS V13.01,2013-10-09 03:13:00,
2013-10-08 22:18:00,63.0,48.2,18.79,SE,142,0.0,0.0,59,0.00,,OVC,0.00,VWS V13.01,2013-10-09 03:18:00,
2013-10-08 22:23:00,62.8,48.1,18.79,South,171,0.0,0.0,59,0.00,,OVC,0.00,VWS V13.01,2013-10-09 03:23:00,
2013-10-08 22:28:00,62.8,48.1,18.79,SSE,151,0.0,0.0,59,0.00,,OVC,0.00,VWS V13.01,2013-10-09 03:28:00,
2013-10-08 22:33:00,62.6,47.9,18.79,West,264,0.0,0.0,59,0.00,,OVC,0.00,VWS V13.01,2013-10-09 03:33:00,
2013-10-08 22:38:00,62.6,47.9,18.79,South,174,0.0,0.0,59,0.00,,OVC,0.00,VWS V13.01,2013-10-09 03:38:00,
2013-10-08 22:43:00,62.6,47.9,18.79,South,174,0.0,0.0,59,0.00,,OVC,0.00,VWS V13.01,2013-10-09 03:43:00,
2013-10-08 22:48:00,62.2,47.6,18.79,South,169,0.0,0.0,59,0.00,,OVC,0.00,VWS V13.01,2013-10-09 03:48:00,
2013-10-08 22:53:00,61.9,47.2,18.79,South,174,0.0,0.0,59,0.00,,OVC,0.00,VWS V13.01,2013-10-09 03:53:00,
2013-10-08 22:58:00,61.7,47.1,18.79,South,172,0.0,0.0,59,0.00,,OVC,0.00,VWS V13.01,2013-10-09 03:58:00,
2013-10-08 23:01:00,61.7,47.1,18.79,SE,141,0.0,0.0,59,0.00,,OVC,0.00,VWS V13.01,2013-10-09 04:01:00,
2013-10-08 23:06:00,61.7,47.1,18.79,SSE,149,0.0,0.0,59,0.00,,OVC,0.00,VWS V13.01,2013-10-09 04:06:00,
2013-10-08 23:11:00,61.7,47.1,18.79,SE,128,0.0,0.0,59,0.00,,OVC,0.00,VWS V13.01,2013-10-09 04:11:00,
2013-10-08 23:16:00,61.7,47.1,18.79,SSE,153,0.0,0.0,59,0.00,,OVC,0.00,VWS V13.01,2013-10-09 04:16:00,
2013-10-08 23:21:00,61.7,47.1,18.79,SE,139,0.0,0.0,59,0.00,,OVC,0.00,VWS V13.01,2013-10-09 04:21:00,
2013-10-08 23:26:00,61.9,47.2,18.79,ESE,122,0.0,0.0,59,0.00,,OVC,0.00,VWS V13.01,2013-10-09 04:26:00,
2013-10-08 23:31:00,61.9,47.2,18.79,NE,39,0.0,0.0,59,0.00,,OVC,0.00,VWS V13.01,2013-10-09 04:31:00,
2013-10-08 23:36:00,61.9,47.2,18.79,South,178,0.0,0.0,59,0.00,,OVC,0.00,VWS V13.01,2013-10-09 04:36:00,
2013-10-08 23:41:00,61.9,47.2,18.79,West,262,0.0,0.0,59,0.00,,OVC,0.00,VWS V13.01,2013-10-09 04:41:00,
2013-10-08 23:46:00,61.5,46.9,18.79,South,189,0.0,0.0,59,0.00,,OVC,0.00,VWS V13.01,2013-10-09 04:46:00,
2013-10-08 23:51:00,61.3,46.7,18.79,SSW,213,0.0,0.0,59,0.00,,OVC,0.00,VWS V13.01,2013-10-09 04:51:00,
2013-10-08 23:56:00,61.2,46.6,18.79,South,174,3.1,3.1,59,0.00,,OVC,0.00,VWS V13.01,2013-10-09 04:56:00,